EW4565 Weather Reports


Display with metric or nautical units.
time (UTC)temp
F
wind
direction
speed
MPH
gust
MPH
rain 1hr
in
rain 24hr
in
rain mn
in
humidity
%
barometer
mb
20260509014201 66 64 1.0 3.0 0.00 0.00 0.00 41 1011.2
20260509013702 67 64 1.0 4.0 0.00 0.00 0.00 41 1011.2
20260509013201 67 63 1.0 4.0 0.00 0.00 0.00 41 1011.2
20260509012703 67 64 1.0 6.0 0.00 0.00 0.00 41 1011.2
20260509012206 67 69 1.0 6.0 0.00 0.00 0.00 41 1011.2
20260509011959 67 64 2.0 7.0 0.00 0.00 0.00 41 1011.2
20260509011459 67 54 2.0 7.0 0.00 0.00 0.00 40 1011.2
20260509010705 67 100 2.0 5.0 0.00 0.00 0.00 39 1011.2
20260509010320 67 48 1.0 5.0 0.00 0.00 0.00 42 1011.2
20260509010255 67 102 1.0 5.0 0.00 0.00 0.00 41 1011.2
20260509005202 67 48 2.0 5.0 0.00 0.00 0.00 41 1011.2
20260509004704 67 47 2.0 5.0 0.00 0.00 0.00 43 1011.3
20260509004202 67 53 2.0 6.0 0.00 0.00 0.00 43 1011.2
20260509003702 68 132 2.0 6.0 0.00 0.00 0.00 42 1011.2
20260509003201 68 155 2.0 5.0 0.00 0.00 0.00 41 1011.2
20260509002700 68 145 2.0 4.0 0.00 0.00 0.00 40 1011.2
20260509002202 68 108 1.0 4.0 0.00 0.00 0.00 41 1011.2
20260509002004 68 52 1.0 5.0 0.00 0.00 0.00 40 1011.2
20260509001202 69 52 2.0 5.0 0.00 0.00 0.00 40 1011.2
20260509000701 69 64 2.0 5.0 0.00 0.00 0.00 40 1011.2
20260509000204 69 63 2.0 7.0 0.00 0.00 0.00 39 1011.1
20260508235702 69 167 2.0 7.0 0.00 0.00 0.00 38 1011.2
20260508235201 69 60 2.0 6.0 0.00 0.00 0.00 40 1011.2
20260508234702 69 75 2.0 6.0 0.00 0.00 0.00 39 1011.2
20260508234201 69 73 2.0 6.0 0.00 0.00 0.00 39 1011.2
20260508233700 69 75 2.0 6.0 0.00 0.00 0.00 38 1011.2
20260508233201 69 59 2.0 6.0 0.00 0.00 0.00 38 1011.2
20260508232957 69 60 2.0 6.0 0.00 0.00 0.00 38 1011.2
20260508232201 69 68 2.0 5.0 0.00 0.00 0.00 37 1011.1
20260508231701 69 77 2.0 7.0 0.00 0.00 0.00 39 1011.3
20260508231201 69 167 2.0 7.0 0.00 0.00 0.00 37 1011.2
20260508231123 69 83 2.0 8.0 0.00 0.00 0.00 38 1011.2
20260508231109 69 143 2.0 8.0 0.00 0.00 0.00 37 1011.2
20260508225702 69 60 2.0 6.0 0.00 0.00 0.00 38 1011.2
20260508225201 69 57 2.0 6.0 0.00 0.00 0.00 37 1011.2
20260508224703 69 125 1.0 6.0 0.00 0.00 0.00 38 1011.2
20260508224201 69 178 1.0 7.0 0.00 0.00 0.00 38 1011.3
20260508223702 69 187 2.0 7.0 0.00 0.00 0.00 38 1011.3
20260508223201 69 45 3.0 7.0 0.00 0.00 0.00 38 1011.3
20260508222702 69 50 3.0 10.0 0.00 0.00 0.00 38 1011.1
20260508222205 69 129 3.0 10.0 0.00 0.00 0.00 38 1011.2
20260508222000 69 164 3.0 10.0 0.00 0.00 0.00 38 1011.3
20260508221205 69 185 2.0 10.0 0.00 0.00 0.00 37 1011.2
20260508220703 69 52 2.0 8.0 0.00 0.00 0.00 38 1011.2
20260508220205 70 50 2.0 8.0 0.00 0.00 0.00 36 1011.1
20260508215704 70 65 2.0 7.0 0.00 0.00 0.00 37 1011.1
20260508215206 70 100 3.0 10.0 0.00 0.00 0.00 38 1011.1
20260508214705 70 52 3.0 10.0 0.00 0.00 0.00 38 1011.1
20260508214500 70 73 3.0 8.0 0.00 0.00 0.00 37 1011.1
20260508213704 70 59 3.0 8.0 0.00 0.00 0.00 37 1011.1
20260508213458 70 52 3.0 10.0 0.00 0.00 0.00 38 1011.1
20260508213010 71 94 4.0 10.0 0.00 0.00 0.00 37 1011.1
20260508212512 71 56 3.0 10.0 0.00 0.00 0.00 37 1011.1
20260508211706 71 56 3.0 10.0 0.00 0.00 0.00 37 1011.1
20260508211612 71 160 3.0 9.0 0.00 0.00 0.00 36 1011.1
20260508211558 71 82 3.0 10.0 0.00 0.00 0.00 37 1011.1
20260508210205 72 52 3.0 10.0 0.00 0.00 0.00 37 1011.1
20260508205704 72 62 3.0 10.0 0.00 0.00 0.00 38 1011.1
20260508205204 71 71 3.0 11.0 0.00 0.00 0.00 39 1011.2
20260508204705 71 43 3.0 11.0 0.00 0.00 0.00 39 1011.2
20260508204459 71 62 3.0 8.0 0.00 0.00 0.00 40 1011.3
20260508203959 71 59 3.0 7.0 0.00 0.00 0.00 41 1011.2
20260508203207 71 137 2.0 7.0 0.00 0.00 0.00 41 1011.3
20260508202705 71 95 2.0 6.0 0.00 0.00 0.00 42 1011.3
20260508202205 71 99 2.0 7.0 0.00 0.00 0.00 43 1011.3
20260508201705 71 65 1.0 7.0 0.00 0.00 0.00 43 1011.2
20260508201204 71 134 0.0 4.0 0.00 0.00 0.00 47 1011.3
20260508200703 70 195 1.0 4.0 0.00 0.00 0.00 48 1011.3
20260508200205 70 195 1.0 4.0 0.00 0.00 0.00 46 1011.3
20260508195958 70 199 0.0 4.0 0.00 0.00 0.00 47 1011.3
20260508195203 70 201 0.0 3.0 0.00 0.00 0.00 48 1011.3
20260508194704 69 201 0.0 3.0 0.00 0.00 0.00 48 1011.3
20260508194205 69 201 0.0 3.0 0.00 0.00 0.00 49 1011.3
20260508193705 69 201 0.0 3.0 0.00 0.00 0.00 49 1011.4
20260508193205 69 201 0.0 4.0 0.00 0.00 0.00 50 1011.5
20260508192705 68 198 1.0 4.0 0.00 0.00 0.00 49 1011.6
20260508192456 68 201 1.0 3.0 0.00 0.00 0.00 50 1011.5
20260508191701 68 204 1.0 3.0 0.00 0.00 0.00 49 1011.6
20260508191510 68 206 1.0 4.0 0.00 0.00 0.00 51 1011.6
20260508190659 68 205 1.0 5.0 0.00 0.00 0.00 48 1011.7
20260508190159 68 201 1.0 5.0 0.00 0.00 0.00 48 1011.8
20260508185700 68 195 1.0 4.0 0.00 0.00 0.00 48 1011.9
20260508185159 67 198 1.0 5.0 0.00 0.00 0.00 48 1012.1
20260508184700 67 197 1.0 5.0 0.00 0.00 0.00 48 1012.1
20260508184200 67 206 0.0 2.0 0.00 0.00 0.00 50 1012.3
20260508183703 67 206 0.0 3.0 0.00 0.00 0.00 49 1012.3
20260508183157 66 206 1.0 4.0 0.00 0.00 0.00 50 1012.3
20260508182658 66 213 1.0 4.0 0.00 0.00 0.00 50 1012.3
20260508182157 66 179 0.0 2.0 0.00 0.00 0.00 50 1012.3
20260508181956 65 179 0.0 3.0 0.00 0.00 0.00 50 1012.3
20260508181158 65 179 0.0 3.0 0.00 0.00 0.00 51 1012.4
20260508180958 65 181 0.0 3.0 0.00 0.00 0.00 49 1012.4
20260508180158 65 182 0.0 3.0 0.00 0.00 0.00 49 1012.4
20260508175657 65 182 0.0 3.0 0.00 0.00 0.00 50 1012.4
20260508175157 65 182 1.0 5.0 0.00 0.00 0.00 49 1012.5
20260508174656 64 201 1.0 5.0 0.00 0.00 0.00 49 1012.5
20260508174154 64 222 0.0 3.0 0.00 0.00 0.00 49 1012.5
20260508173657 63 222 0.0 4.0 0.00 0.00 0.00 50 1012.8
20260508173156 63 222 1.0 4.0 0.00 0.00 0.00 49 1012.9
20260508172655 63 228 0.0 4.0 0.00 0.00 0.00 49 1013.0
20260508172154 62 266 0.0 2.0 0.00 0.00 0.00 52 1013.0
20260508171752 62 266 0.0 4.0 0.00 0.00 0.00 53 1013.1
20260508171734 62 266 0.0 2.0 0.00 0.00 0.00 51 1013.1
20260508170654 62 266 0.0 4.0 0.00 0.00 0.00 52 1013.1
20260508170148 62 266 0.0 2.0 0.00 0.00 0.00 52 1013.2
20260508165645 62 266 0.0 2.0 0.00 0.00 0.00 53 1013.2
20260508165146 62 266 0.0 3.0 0.00 0.00 0.00 53 1013.3
20260508164643 62 266 0.0 3.0 0.00 0.00 0.00 52 1013.2
20260508164143 61 268 0.0 2.0 0.00 0.00 0.00 53 1013.3
20260508163643 61 270 1.0 3.0 0.00 0.00 0.00 52 1013.4
20260508163144 61 269 1.0 3.0 0.00 0.00 0.00 53 1013.2
20260508162644 60 274 1.0 3.0 0.00 0.00 0.00 55 1013.3
20260508162141 60 274 0.0 3.0 0.00 0.00 0.00 55 1013.4
20260508161643 60 272 0.0 2.0 0.00 0.00 0.00 57 1013.4
20260508161138 59 271 0.0 3.0 0.00 0.00 0.00 56 1013.4
20260508160638 58 272 0.0 3.0 0.00 0.00 0.00 59 1013.4
20260508160138 58 274 0.0 2.0 0.00 0.00 0.00 59 1013.5
20260508155636 58 274 0.0 4.0 0.00 0.00 0.00 58 1013.5
20260508155138 57 274 1.0 4.0 0.00 0.00 0.00 59 1013.5
20260508154637 57 280 0.0 3.0 0.00 0.00 0.00 60 1013.5
20260508154136 56 279 0.0 2.0 0.00 0.00 0.00 61 1013.5
20260508153640 56 279 0.0 2.0 0.00 0.00 0.00 61 1013.5
20260508153137 56 280 0.0 2.0 0.00 0.00 0.00 62 1013.5
20260508152938 56 280 0.0 2.0 0.00 0.00 0.00 63 1013.5
20260508152138 56 279 0.0 3.0 0.00 0.00 0.00 63 1013.6
20260508151636 56 280 0.0 3.0 0.00 0.00 0.00 63 1013.7
20260508151438 55 285 0.0 3.0 0.00 0.00 0.00 63 1013.6
20260508150636 55 285 0.0 3.0 0.00 0.00 0.00 63 1013.7
20260508150439 54 287 0.0 1.0 0.00 0.00 0.00 66 1013.7
20260508145633 53 287 0.0 1.0 0.00 0.00 0.00 66 1013.7
20260508145131 52 287 0.0 1.0 0.00 0.00 0.00 68 1013.7
20260508144633 52 287 0.0 0.0 0.00 0.00 0.00 68 1013.8
20260508144133 52 287 0.0 0.0 0.00 0.00 0.00 69 1013.7
20260508143633 51 287 0.0 0.0 0.00 0.00 0.00 70 1013.7
20260508143133 51 287 0.0 0.0 0.00 0.00 0.00 72 1013.7
20260508142634 51 287 0.0 0.0 0.00 0.00 0.00 71 1013.7
20260508142130 51 287 0.0 0.0 0.00 0.00 0.00 70 1013.7
20260508141629 50 287 0.0 0.0 0.00 0.00 0.00 72 1013.6
20260508141130 50 287 0.0 0.0 0.00 0.00 0.00 73 1013.7
20260508140629 50 287 0.0 0.0 0.00 0.00 0.00 74 1013.6
20260508140130 50 287 0.0 0.0 0.00 0.00 0.00 74 1013.7
20260508135629 50 287 0.0 0.0 0.00 0.00 0.00 74 1013.6
20260508135130 50 287 0.0 0.0 0.00 0.00 0.00 74 1013.7
20260508134634 50 287 0.0 0.0 0.00 0.00 0.00 74 1013.7
20260508134131 49 287 0.0 0.0 0.00 0.00 0.00 74 1013.8
20260508133636 49 287 0.0 0.0 0.00 0.00 0.00 74 1013.6
20260508133132 49 287 0.0 0.0 0.00 0.00 0.00 73 1013.5
20260508132630 49 287 0.0 0.0 0.00 0.00 0.00 72 1013.5
20260508132129 49 287 0.0 0.0 0.00 0.00 0.00 72 1013.5
20260508131630 49 287 0.0 0.0 0.00 0.00 0.00 74 1013.5
20260508131130 49 287 0.0 0.0 0.00 0.00 0.00 73 1013.5
20260508130932 49 287 0.0 0.0 0.00 0.00 0.00 73 1013.5
20260508130426 49 287 0.0 0.0 0.00 0.00 0.00 72 1013.6
20260508125630 49 287 0.0 0.0 0.00 0.00 0.00 71 1013.6
20260508125427 49 287 0.0 0.0 0.00 0.00 0.00 70 1013.5
20260508124933 49 287 0.0 0.0 0.00 0.00 0.00 72 1013.5
20260508124131 49 287 0.0 0.0 0.00 0.00 0.00 72 1013.5
20260508123630 49 287 0.0 0.0 0.00 0.00 0.00 72 1013.4
20260508123132 49 287 0.0 0.0 0.00 0.00 0.00 72 1013.4
20260508122631 49 287 0.0 0.0 0.00 0.00 0.00 71 1013.4
20260508122130 49 287 0.0 0.0 0.00 0.00 0.00 71 1013.4
20260508121630 49 287 0.0 0.0 0.00 0.00 0.00 69 1013.4
20260508121129 49 287 0.0 0.0 0.00 0.00 0.00 70 1013.4
20260508120631 49 287 0.0 0.0 0.00 0.00 0.00 70 1013.4
20260508120428 49 287 0.0 0.0 0.00 0.00 0.00 69 1013.3
20260508115628 49 287 0.0 0.0 0.00 0.00 0.00 69 1013.4
20260508115130 49 287 0.0 0.0 0.00 0.00 0.00 69 1013.3
20260508114635 50 287 0.0 0.0 0.00 0.00 0.00 70 1013.3
20260508114136 50 287 0.0 0.0 0.00 0.00 0.00 69 1013.3
20260508113631 50 287 0.0 0.0 0.00 0.00 0.00 69 1013.2
20260508113130 50 287 0.0 0.0 0.00 0.00 0.00 68 1013.1
20260508112630 50 287 0.0 0.0 0.00 0.00 0.00 68 1013.1
20260508112130 50 287 0.0 0.0 0.00 0.00 0.00 67 1013.1
20260508111631 51 287 0.0 0.0 0.00 0.00 0.00 67 1013.1
20260508111131 51 287 0.0 0.0 0.00 0.00 0.00 67 1013.0
20260508110630 51 287 0.0 0.0 0.00 0.00 0.00 67 1012.9
20260508110130 51 287 0.0 0.0 0.00 0.00 0.00 66 1013.0
20260508105630 51 287 0.0 0.0 0.00 0.00 0.00 67 1013.0
20260508105130 51 287 0.0 0.0 0.00 0.00 0.00 67 1013.0
20260508104930 51 287 0.0 0.0 0.00 0.00 0.00 67 1013.0
20260508104130 51 287 0.0 0.0 0.00 0.00 0.00 66 1013.0
20260508103931 51 287 0.0 0.0 0.00 0.00 0.00 66 1013.0
20260508103131 52 287 0.0 0.0 0.00 0.00 0.00 64 1012.9
20260508102629 52 287 0.0 0.0 0.00 0.00 0.00 63 1012.9
20260508102129 52 287 0.0 0.0 0.00 0.00 0.00 61 1012.9
20260508101633 52 287 0.0 0.0 0.00 0.00 0.00 61 1012.9
20260508101237 52 287 0.0 0.0 0.00 0.00 0.00 62 1012.6
20260508101214 52 287 0.0 0.0 0.00 0.00 0.00 62 1012.8
20260508100133 52 287 0.0 0.0 0.00 0.00 0.00 62 1012.5
20260508095632 52 287 0.0 0.0 0.00 0.00 0.00 62 1012.5
20260508095422 52 287 0.0 0.0 0.00 0.00 0.00 63 1012.6
20260508094631 52 287 0.0 0.0 0.00 0.00 0.00 63 1012.5
20260508094129 52 287 0.0 0.0 0.00 0.00 0.00 64 1012.5
20260508093629 52 287 0.0 0.0 0.00 0.00 0.00 65 1012.5
20260508093129 52 287 0.0 0.0 0.00 0.00 0.00 63 1012.4
20260508092629 52 287 0.0 0.0 0.00 0.00 0.00 63 1012.4
20260508092219 53 287 0.0 0.0 0.00 0.00 0.00 63 1012.5
20260508091129 53 287 0.0 0.0 0.00 0.00 0.00 63 1012.5
20260508090630 53 287 0.0 0.0 0.00 0.00 0.00 63 1012.6
20260508090129 53 287 0.0 0.0 0.00 0.00 0.00 62 1012.6
20260508085630 53 287 0.0 0.0 0.00 0.00 0.00 63 1012.5
20260508085128 53 287 0.0 0.0 0.00 0.00 0.00 63 1012.4
20260508084629 54 287 0.0 1.0 0.00 0.00 0.00 62 1012.5
20260508084130 54 287 0.0 1.0 0.00 0.00 0.00 61 1012.4
20260508083629 54 287 0.0 0.0 0.00 0.00 0.00 60 1012.5
20260508083449 54 287 0.0 0.0 0.00 0.00 0.00 60 1012.4
20260508083027 54 287 0.0 0.0 0.00 0.00 0.00 58 1012.3
20260508083022 54 287 0.0 0.0 0.00 0.00 0.00 59 1012.3
20260508081630 54 287 0.0 0.0 0.00 0.00 0.00 60 1012.3
20260508081129 54 287 0.0 0.0 0.00 0.00 0.00 59 1012.3
20260508080630 54 287 0.0 0.0 0.00 0.00 0.00 60 1012.3
20260508080129 54 287 0.0 0.0 0.00 0.00 0.00 60 1012.3
20260508075630 55 287 0.0 0.0 0.00 0.00 0.00 59 1012.3
20260508075129 55 287 0.0 0.0 0.00 0.00 0.00 57 1012.2
20260508074632 55 287 0.0 0.0 0.00 0.00 0.00 56 1012.2
20260508074130 55 287 0.0 0.0 0.00 0.00 0.00 54 1012.2
20260508073928 56 287 0.0 0.0 0.00 0.00 0.00 53 1012.1
20260508073130 56 287 0.0 1.0 0.00 0.00 0.00 53 1012.1
20260508072628 56 287 0.0 1.0 0.00 0.00 0.00 52 1012.2
20260508072129 56 287 0.0 0.0 0.00 0.00 0.00 51 1012.2
20260508071631 57 287 0.0 2.0 0.00 0.00 0.00 50 1012.2
20260508071129 57 287 0.0 2.0 0.00 0.00 0.00 50 1012.2
20260508070929 57 287 0.0 3.0 0.00 0.00 0.00 50 1012.1
20260508070129 57 287 0.0 3.0 0.00 0.00 0.00 50 1012.0
20260508065630 57 286 0.0 2.0 0.00 0.00 0.00 50 1012.1
20260508065128 57 285 0.0 1.0 0.00 0.00 0.00 50 1012.0
20260508064629 58 285 0.0 1.0 0.00 0.00 0.00 49 1012.0
20260508064129 58 285 0.0 1.0 0.00 0.00 0.00 49 1011.9
20260508063629 58 285 0.0 2.0 0.00 0.00 0.00 48 1011.9
20260508063130 58 285 0.0 3.0 0.00 0.00 0.00 49 1011.9
20260508062629 58 285 0.0 3.0 0.00 0.00 0.00 49 1011.9
20260508062130 58 285 0.0 1.0 0.00 0.00 0.00 49 1011.9
20260508061630 58 285 0.0 0.0 0.00 0.00 0.00 50 1011.9
20260508061126 58 285 0.0 0.0 0.00 0.00 0.00 49 1011.8
20260508060625 59 285 0.0 0.0 0.00 0.00 0.00 48 1011.8
20260508060418 59 285 0.0 3.0 0.00 0.00 0.00 47 1011.7
20260508055622 59 285 1.0 3.0 0.00 0.00 0.00 47 1011.7
20260508055122 59 284 0.0 3.0 0.00 0.00 0.00 46 1011.7
20260508054616 60 283 1.0 3.0 0.00 0.00 0.00 46 1011.6
20260508054117 60 280 1.0 3.0 0.00 0.00 0.00 46 1011.6
20260508053618 60 280 0.0 2.0 0.00 0.00 0.00 48 1011.6
20260508053112 60 280 0.0 1.0 0.00 0.00 0.00 48 1011.6
20260508052612 60 281 0.0 1.0 0.00 0.00 0.00 48 1011.6
20260508052110 60 280 0.0 0.0 0.00 0.00 0.00 50 1011.5
20260508051608 60 280 0.0 0.0 0.00 0.00 0.00 50 1011.5
20260508051105 61 280 0.0 0.0 0.00 0.00 0.00 50 1011.5
20260508050608 61 280 0.0 2.0 0.00 0.00 0.00 48 1011.4
20260508050105 61 280 0.0 2.0 0.00 0.00 0.00 49 1011.3
20260508045605 61 280 0.0 2.0 0.00 0.00 0.00 49 1011.4
20260508045106 61 280 0.0 2.0 0.00 0.00 0.00 49 1011.3
20260508044605 61 280 0.0 2.0 0.00 0.00 0.00 50 1011.3
20260508044105 61 279 0.0 2.0 0.00 0.00 0.00 51 1011.3
20260508043603 61 278 0.0 2.0 0.00 0.00 0.00 52 1011.3
20260508043105 61 278 0.0 2.0 0.00 0.00 0.00 54 1011.2
20260508042607 61 278 0.0 1.0 0.00 0.00 0.00 55 1011.3
20260508042104 61 278 0.0 1.0 0.00 0.00 0.00 56 1011.3
20260508041605 61 278 0.0 1.0 0.00 0.00 0.00 55 1011.2
20260508041103 61 278 0.0 0.0 0.00 0.00 0.00 56 1011.1
20260508040602 62 278 0.0 2.0 0.00 0.00 0.00 54 1011.1
20260508040356 62 278 0.0 3.0 0.00 0.00 0.00 54 1010.9
20260508035604 63 278 0.0 3.0 0.00 0.00 0.00 53 1010.9
20260508035355 63 276 0.0 2.0 0.00 0.00 0.00 53 1010.9
20260508034606 64 276 0.0 2.0 0.00 0.00 0.00 53 1010.8
20260508034106 64 276 0.0 0.0 0.00 0.00 0.00 50 1010.6
20260508033603 64 276 0.0 0.0 0.00 0.00 0.00 49 1010.5
20260508033105 65 276 0.0 0.0 0.00 0.00 0.00 49 1010.4
20260508032604 65 276 0.0 0.0 0.00 0.00 0.00 49 1010.4
20260508032103 66 276 0.0 0.0 0.00 0.00 0.00 49 1010.4
20260508031603 66 276 0.0 1.0 0.00 0.00 0.00 49 1010.3
20260508031104 67 276 0.0 1.0 0.00 0.00 0.00 48 1010.3
20260508030606 67 276 0.0 1.0 0.00 0.00 0.00 47 1010.2
20260508030409 68 276 0.0 2.0 0.00 0.00 0.00 46 1010.3
20260508025603 69 276 0.0 2.0 0.00 0.00 0.00 45 1010.2
20260508025105 70 276 0.0 1.0 0.00 0.00 0.00 45 1010.2
20260508024605 71 276 0.0 2.0 0.00 0.00 0.00 43 1010.1
20260508024105 72 276 0.0 3.0 0.00 0.00 0.00 42 1010.0
20260508023605 73 276 0.0 3.0 0.00 0.00 0.00 38 1010.0
20260508023105 73 278 0.0 0.0 0.00 0.00 0.00 37 1009.9
20260508022604 74 278 0.0 0.0 0.00 0.00 0.00 38 1009.8
20260508022104 74 278 0.0 1.0 0.00 0.00 0.00 36 1009.8
20260508021724 74 278 0.0 1.0 0.00 0.00 0.00 36 1009.8
20260508021658 74 278 0.0 1.0 0.00 0.00 0.00 36 1009.8
20260508020605 74 278 0.0 1.0 0.00 0.00 0.00 36 1009.8
20260508020105 75 278 0.0 2.0 0.00 0.00 0.00 34 1009.9
20260508015606 75 278 0.0 2.0 0.00 0.00 0.00 33 1009.9
20260508015105 76 278 0.0 3.0 0.00 0.00 0.00 33 1009.9
20260508014604 76 278 0.0 3.0 0.00 0.00 0.00 33 1009.9